This demonstration page uses our WeatherBlox Daily Observations layout. Learn more.

Left ArrowRight Arrow

41.55636, -103.73856

Hourly Observations for February 25, 2015

Temp ( °F °C ) Dew Point ( °F °C ) Humidity (%) Winds ( mph kmh ) Pressure ( in mb ) Visibility ( mi km ) Precip ( " mm )
12:53 am 00:53 Cloudy 35 1.7 24 -4.4 64 64 WNW 9 15 29.77 1008 10 16.0934 0 0
1:53 am 01:53 Cloudy 36 2.2 24 -4.4 62 62 W 6 9 29.77 1008 10 16.0934 0 0
2:53 am 02:53 Cloudy with Light Rain 39 3.9 34 1.1 82 82 NW 24 39 29.77 1008 8 12.87472 0 0.0254
3:16 am 03:16 Cloudy with Light Rain 39 4 36 2 87 87 WNW 14 22 29.85 1011 10 16.0934 0 0
3:53 am 03:53 Cloudy with Light Rain 38 3.3 37 2.8 97 97 WNW 10 17 29.78 1009 10 16.0934 0.01 0.254
4:53 am 04:53 Cloudy 37 2.8 37 2.8 100 100 W 9 15 29.8 1009 10 16.0934 0 0.0254
5:53 am 05:53 Cloudy 36 2.2 34 1.1 93 93 WNW 10 17 29.85 1011 10 16.0934 0 0
6:53 am 06:53 Mostly Cloudy 36 2.2 33 0.6 89 89 NW 9 15 29.88 1012 10 16.0934 0 0
7:49 am 07:49 Cloudy 37 3 34 1 87 87 NNW 13 20 29.97 1015 10 16.0934 0 0.0254
7:53 am 07:53 Cloudy 37 2.8 33 0.6 86 86 NNW 15 24 29.91 1013 10 16.0934 0 0.0254
8:53 am 08:53 Cloudy 38 3.3 32 0 79 79 NW 18 30 29.94 1014 10 16.0934 0 0
9:53 am 09:53 Mostly Cloudy 40 4.4 31 -0.6 70 70 NW 21 33 29.97 1015 10 16.0934 0 0
10:53 am 10:53 Cloudy 41 5 30 -1.1 65 65 NNW 23 37 29.95 1014 10 16.0934 0 0
11:53 am 11:53 Cloudy 42 5.6 26 -3.3 53 53 NNW 25 41 29.96 1015 10 16.0934 0 0
12:53 pm 12:53 Cloudy 38 3.3 27 -2.8 65 65 NNE 20 31 29.98 1015 10 16.0934 0 0
1:53 pm 13:53 Mostly Cloudy 38 3.3 25 -3.9 60 60 N 16 26 30 1016 10 16.0934 0 0
2:53 pm 14:53 Sunny 36 2.2 24 -4.4 62 62 N 13 20 30.02 1017 10 16.0934 0 0
3:53 pm 15:53 Mostly Sunny 35 1.7 23 -5 61 61 NE 12 19 30.04 1017 10 16.0934 0 0
4:53 pm 16:53 Sunny 33 0.6 24 -4.4 70 70 NE 7 11 30.04 1017 10 16.0934 0 0
5:41 pm 17:41 Cloudy with Light Snow 31 -0.6 25 -3.9 79 79 NNW 18 30 30.18 1022 1.25 2.011675 0 0.0254
5:53 pm 17:53 Windy with Snow Likely 30 -1.1 25 -3.9 82 82 NNW 20 31 30.11 1020 4 6.43736 0 0.0254
6:08 pm 18:08 Partly Cloudy 30 -1 23 -5 75 75 NNW 22 35 30.18 1022 10 16.0934 0 0
6:53 pm 18:53 Mostly Cloudy 24 -4.4 18 -7.8 77 77 NNE 25 41 30.19 1022 10 16.0934 0 0.0254
7:53 pm 19:53 Cloudy 21 -6.1 15 -9.4 78 78 N 16 26 30.27 1025 10 16.0934 0 0
8:19 pm 20:19 Cloudy 20 -6.7 14 -10 78 78 NNE 16 26 30.45 1031 10 16.0934 0 0
8:53 pm 20:53 Cloudy 19 -7.2 11 -11.7 71 71 NNE 13 20 30.32 1027 10 16.0934 0 0
9:51 pm 21:51 Cloudy 18 -8 9 -13 68 68 NNE 14 22 30.48 1032 10 16.0934 0 0
9:53 pm 21:53 Cloudy 17 -8.3 9 -12.8 70 70 NNE 14 22 30.34 1028 10 16.0934 0 0
10:53 pm 22:53 Cloudy 16 -8.9 9 -12.8 74 74 NNE 16 26 30.34 1028 7 11.26538 0 0.0254
11:53 pm 23:53 Cloudy 15 -9.4 8 -13.3 74 74 NNE 14 22 30.35 1028 10 16.0934 0 0

Powered by AerisWeather